[[{"header":{"parameterUnit":"m.s-1","parameterCategory":2,"la1":30.2991,"la2":30.254,"lo1":-89.0895,"lo2":-89.0444,"dy":0.0017,"dx":0.0017,"nx":28,"ny":28,"refTime":"2025-05-29T21:00:00:Z","depth":"0","parameterNumber":2,"parameterNumberName":"U-component_of_CURRENTS"},"data":[0,0,0,0,0,0,0,0,0,0,0,0,0,0,0,0,0,0,0,0,0,0,0,0,0,0,0,0,0,0,0,0,0,0,0,0,0,0,0,0,0,0,0,0,0,0,0,0,0,0,0,0,0,0,0,0,0,0,-0.3807,-0.381,0,-0.4028,-0.403,-0.4031,-0.3995,-0.3992,-0.3989,-0.3987,-0.3888,-0.3888,-0.3888,0,0,0,0,0,0,0,0,0,0,0,0,0,-0.3248,-0.3258,-0.3806,-0.381,-0.3814,-0.4028,-0.403,-0.4032,-0.3996,-0.3992,-0.3989,-0.3985,-0.3888,-0.3888,-0.3888,0,0,0,0,0,0,0,0,0,0,0,0,0,-0.3472,-0.3262,-0.3806,-0.3829,-0.3834,-0.4027,-0.403,-0.4032,-0.3996,-0.3992,-0.3988,-0.3984,-0.3888,-0.3888,-0.3888,-0.3974,0,0,-0.3888,-0.3888,0,0,0,0,0,0,0,0,-0.346,-0.3491,-0.3822,-0.3828,-0.3834,-0.3989,-0.3798,-0.4001,-0.3997,-0.3924,-0.3987,-0.3982,-0.3902,-0.3901,-0.3942,-0.397,-0.3965,-0.3888,-0.3888,-0.3888,-0.3888,0,0,0,0,0,0,0,-0.3444,-0.3481,-0.3883,-0.3827,-0.3834,-0.3794,-0.3821,-0.3836,-0.392,-0.393,-0.393,-0.3973,-0.3901,-0.3942,-0.3938,-0.3964,-0.3888,-0.3888,-0.3888,-0.3889,-0.4024,-0.4028,0,0,0,0,0,0,-0.3452,-0.3469,-0.3876,-0.3891,-0.3645,-0.3809,-0.3838,-0.3935,-0.3927,-0.3927,-0.3977,-0.3971,-0.3944,-0.3938,-0.3934,-0.3961,-0.3888,-0.3889,-0.3889,-0.4021,-0.4025,-0.4029,0,0,0,0,0,0,-0.344,-0.3488,-0.3868,-0.3688,-0.3735,-0.3825,-0.3932,-0.3942,-0.3976,-0.3968,-0.3959,-0.4,-0.394,-0.3934,-0.3951,-0.3958,-0.3889,-0.3889,-0.4016,-0.4022,-0.4027,-0.406,0,0,0,0,0,0,-0.3423,-0.3484,-0.3541,-0.3692,-0.3746,-0.3984,-0.3938,-0.395,-0.4015,-0.4008,-0.3986,-0.3974,-0.3936,-0.3951,-0.3951,-0.3957,-0.3889,-0.4012,-0.4019,-0.4025,-0.4054,-0.4066,-0.4076,0,0,0,0,0,-0.3403,-0.3495,-0.3544,-0.3592,-0.383,-0.3988,-0.4011,-0.4048,-0.402,-0.4056,-0.4036,-0.3974,-0.3993,-0.3955,-0.3953,-0.3959,-0.4009,-0.4017,-0.4025,-0.405,-0.4064,-0.4075,0,0,0,0,0,0,-0.3268,-0.3508,-0.356,-0.3719,-0.3848,-0.3985,-0.4018,-0.4064,-0.4089,-0.4054,-0.4023,-0.4012,-0.4043,-0.4018,-0.3977,-0.4029,-0.3991,-0.3999,-0.401,-0.4023,-0.4034,-0.3987,-0.3889,0,0,0,0,0,-0.3281,-0.3413,-0.3616,-0.3733,-0.3796,-0.3912,-0.3974,-0.4021,-0.4078,-0.4085,-0.4085,-0.4075,-0.4088,-0.4063,-0.4089,-0.4105,-0.3977,-0.4114,-0.4125,-0.4133,-0.4102,-0.4014,-0.401,-0.4055,-0.4055,-0.4055,0,0,-0.3232,-0.3406,-0.3459,-0.3712,-0.3796,-0.3907,-0.3934,-0.404,-0.4106,-0.4068,-0.4117,-0.413,-0.4116,-0.4144,-0.415,-0.4103,-0.4032,-0.4144,-0.415,-0.4113,-0.4021,-0.4015,-0.401,-0.4061,-0.406,-0.4059,0,0,-0.3214,-0.3383,-0.347,-0.3609,-0.3797,-0.3893,-0.393,-0.4088,-0.4118,-0.4208,-0.4189,-0.4186,-0.4239,-0.42,-0.419,-0.4276,-0.4123,-0.4316,-0.4282,-0.4198,-0.4191,-0.4183,-0.3889,-0.3856,-0.4282,-0.4282,-0.4282,0,-0.3138,-0.3338,-0.3505,-0.3642,-0.3752,-0.3886,-0.3984,-0.4062,-0.4199,-0.4199,-0.4217,-0.4253,-0.4247,-0.4215,-0.426,-0.4284,-0.4164,-0.4221,-0.4201,-0.4192,-0.4184,-0.3886,-0.3848,-0.4285,-0.4284,-0.4284,-0.4284,0,-0.3185,-0.3358,-0.342,-0.3652,-0.3777,-0.3898,-0.4057,-0.4124,-0.4185,-0.4239,-0.4264,-0.4278,-0.4263,-0.4294,-0.4304,-0.426,-0.416,-0.4247,-0.4143,-0.4179,-0.3864,-0.3823,-0.4288,-0.4287,-0.4287,-0.4286,0,0,-0.2979,-0.3375,-0.3385,-0.3535,-0.3812,-0.3923,-0.4017,-0.4138,-0.4139,-0.4238,-0.4212,-0.4273,-0.4256,-0.4247,-0.4254,-0.4189,-0.4005,-0.4202,-0.4196,-0.3857,-0.3663,-0.3511,-0.3449,-0.4114,-0.4111,-0.4109,-0.3416,0,-0.2958,-0.3235,-0.3413,-0.3621,-0.3798,-0.3951,-0.4027,-0.413,-0.419,-0.4194,-0.4176,-0.4183,-0.4247,-0.4231,-0.4183,-0.4092,-0.3925,-0.4173,-0.3724,-0.3704,-0.3529,-0.3411,-0.3379,-0.276,-0.3376,-0.3369,-0.3364,0,-0.2925,-0.3173,-0.3398,-0.371,-0.3767,-0.3865,-0.3995,-0.4082,-0.4097,-0.412,-0.4093,-0.41,-0.3999,-0.4093,-0.3811,-0.3979,-0.381,-0.3709,-0.3682,-0.3505,-0.3485,-0.2858,-0.2663,-0.2699,-0.33,-0.3305,-0.331,0,-0.2798,-0.3125,-0.3328,-0.3454,-0.3802,-0.3845,-0.3949,-0.4027,-0.4044,-0.4051,-0.399,-0.3938,-0.3808,-0.3718,-0.3512,-0.3669,-0.3142,-0.3314,-0.2946,-0.2923,-0.2781,-0.2756,-0.2533,-0.306,-0.3061,-0.3063,-0.3065,0,-0.2787,-0.2936,-0.3282,-0.3439,-0.3559,-0.3794,-0.3829,-0.3904,-0.3925,-0.3819,-0.3924,-0.375,-0.3734,-0.3459,-0.3373,-0.2946,-0.2982,-0.2846,-0.2754,-0.2782,-0.2766,-0.2708,-0.2808,-0.3037,-0.3043,-0.3048,-0.3053,0,-0.2672,-0.2902,-0.3161,-0.3493,-0.3552,-0.3633,-0.3763,-0.3737,-0.3797,-0.3641,-0.3622,-0.3503,-0.3148,-0.301,-0.2698,-0.263,-0.2296,-0.2184,-0.2108,-0.2027,-0.1865,-0.1969,-0.1558,-0.1505,-0.1681,-0.1673,-0.1667,0,-0.2661,-0.2815,-0.315,-0.3205,-0.3354,-0.3483,-0.3496,-0.3647,-0.3585,-0.3413,-0.3256,-0.2939,-0.2625,-0.2088,-0.1966,-0.1636,-0.1801,-0.1407,-0.1773,-0.1754,-0.1802,-0.1924,-0.1924,-0.1497,-0.149,-0.1484,-0.1479,0,-0.2649,-0.2746,-0.2929,-0.3069,-0.3124,-0.3192,-0.322,-0.3159,-0.3176,-0.3009,-0.2642,-0.2404,-0.1936,-0.1618,-0.1284,-0.1154,-0.1476,-0.1274,-0.1328,-0.1667,-0.1708,-0.1648,-0.1918,-0.1427,-0.1432,-0.1436,-0.1439,-0.1441,-0.2526,-0.2583,-0.2756,-0.2827,-0.2893,-0.2832,-0.2738,-0.2686,-0.2509,-0.2147,-0.205,-0.1592,-0.1459,-0.104,-0.0888,-0.0797,-0.0946,-0.0883,-0.0975,-0.1069,-0.1175,-0.1227,-0.0663,-0.0664,-0.0664,-0.0665,-0.0666,0,-0.2331,-0.2376,-0.2467,-0.2521,-0.2465,-0.2593,-0.2465,-0.2279,-0.1916,-0.1643,-0.1291,-0.0931,-0.0737,-0.069,-0.0662,-0.0601,-0.0684,-0.0599,-0.0849,-0.0844,-0.09,-0.107,-0.0487,-0.0487,-0.0487,-0.0487,-0.0487,-0.0487,-0.2205,-0.2171,-0.2213,-0.2056,-0.2076,-0.1894,-0.1754,-0.1508,-0.1295,-0.0767,-0.0457,-0.0302,-0.0422,-0.0652,-0.0678,-0.0623,-0.071,-0.063,-0.0656,-0.0858,-0.0898,-0.0937,-0.1122,-0.0559,-0.0559,-0.0617,-0.0618,-0.0619]},{"header":{"parameterUnit":"m.s-1","parameterCategory":2,"la1":30.2991,"la2":30.254,"lo1":-89.0895,"lo2":-89.0444,"dy":0.0017,"dx":0.0017,"nx":28,"ny":28,"refTime":"2025-05-29T21:00:00:Z","depth":"0","parameterNumber":3,"parameterNumberName":"V-component_of_CURRENTS"},"data":[0,0,0,0,0,0,0,0,0,0,0,0,0,0,0,0,0,0,0,0,0,0,0,0,0,0,0,0,0,0,0,0,0,0,0,0,0,0,0,0,0,0,0,0,0,0,0,0,0,0,0,0,0,0,0,0,0,0,-0.0712,-0.071,0,-0.0527,-0.0525,-0.0522,-0.0357,-0.0356,-0.0354,-0.0352,-0.0089,-0.0084,-0.0079,0,0,0,0,0,0,0,0,0,0,0,0,0,-0.0758,-0.0759,-0.0712,-0.071,-0.0708,-0.0527,-0.0525,-0.0522,-0.0358,-0.0356,-0.0354,-0.0352,-0.0091,-0.0085,-0.0078,0,0,0,0,0,0,0,0,0,0,0,0,0,-0.067,-0.076,-0.0712,-0.0606,-0.0595,-0.0528,-0.0525,-0.0521,-0.0358,-0.0356,-0.0353,-0.0351,-0.0093,-0.0085,-0.0077,-0.0078,0,0,-0.0053,-0.0049,0,0,0,0,0,0,0,0,-0.0676,-0.0669,-0.0624,-0.0613,-0.0601,-0.0465,-0.0445,-0.037,-0.0359,-0.0445,-0.0352,-0.0349,-0.0212,-0.0194,-0.0162,-0.0065,-0.0054,-0.0052,-0.0047,-0.0043,-0.0041,0,0,0,0,0,0,0,-0.0682,-0.0675,-0.0636,-0.0622,-0.0608,-0.0512,-0.0498,-0.0429,-0.0341,-0.0437,-0.0426,-0.041,-0.0204,-0.017,-0.0154,-0.005,-0.0052,-0.0045,-0.004,-0.0037,0.0082,0.0081,0,0,0,0,0,0,-0.0723,-0.0682,-0.0642,-0.063,-0.0636,-0.0514,-0.0498,-0.0509,-0.0343,-0.0317,-0.0413,-0.0404,-0.0185,-0.0164,-0.0144,-0.0135,-0.0043,-0.0036,-0.0031,0.0084,0.0082,0.008,0,0,0,0,0,0,-0.0725,-0.0722,-0.0649,-0.0652,-0.0636,-0.0518,-0.053,-0.0507,-0.0465,-0.0326,-0.0297,-0.0395,-0.0182,-0.0155,-0.009,-0.0123,-0.0032,-0.0025,0.0086,0.0083,0.0081,-0.0116,0,0,0,0,0,0,-0.0728,-0.0725,-0.0744,-0.0656,-0.0638,-0.0614,-0.0532,-0.0505,-0.0462,-0.0447,-0.0302,-0.0274,-0.0178,-0.0103,-0.0082,-0.011,-0.0018,0.0088,0.0085,0.0082,-0.0107,-0.0125,-0.014,0,0,0,0,0,-0.073,-0.0771,-0.0747,-0.0741,-0.0671,-0.0616,-0.0597,-0.05,-0.0464,-0.0453,-0.0363,-0.0279,-0.0108,-0.0099,-0.0073,-0.01,0.009,0.0086,0.0082,-0.01,-0.0122,-0.014,0,0,0,0,0,0,-0.0788,-0.0756,-0.0728,-0.0753,-0.0692,-0.0589,-0.0578,-0.0519,-0.0441,-0.043,-0.0298,-0.0266,-0.0221,-0.0139,-0.0132,-0.0076,0.0003,0.0004,-0.0144,-0.0163,-0.0179,-0.0248,-0.0012,0,0,0,0,0,-0.0821,-0.0851,-0.0781,-0.08,-0.0782,-0.0687,-0.0654,-0.0593,-0.0514,-0.0476,-0.038,-0.0287,-0.0221,-0.0176,-0.0097,-0.0071,0.0041,-0.0072,-0.0088,-0.0103,-0.0143,-0.0026,-0.0036,0.0067,0.0067,0.0067,0,0,-0.084,-0.0835,-0.0844,-0.0816,-0.0766,-0.0767,-0.066,-0.0626,-0.0627,-0.0463,-0.0437,-0.034,-0.0227,-0.0192,-0.0165,-0.0125,-0.0059,-0.0108,-0.0121,-0.0153,-0.0031,-0.0041,-0.005,0.0065,0.0065,0.0066,0,0,-0.0918,-0.0903,-0.0956,-0.093,-0.0883,-0.0825,-0.0827,-0.0736,-0.0694,-0.0655,-0.0549,-0.0487,-0.0367,-0.0307,-0.026,-0.0327,-0.0152,-0.0286,-0.0422,-0.0309,-0.0316,-0.0322,-0.0133,-0.0121,-0.0294,-0.0294,-0.0294,0,-0.094,-0.101,-0.0953,-0.0998,-0.0992,-0.087,-0.0909,-0.0858,-0.0756,-0.0731,-0.067,-0.0522,-0.0435,-0.0403,-0.0436,-0.0368,-0.024,-0.0357,-0.0331,-0.0335,-0.0337,-0.0142,-0.0126,-0.0304,-0.0303,-0.0302,-0.0301,0,-0.1047,-0.1106,-0.1134,-0.1164,-0.1143,-0.1154,-0.1084,-0.1053,-0.0984,-0.0915,-0.0854,-0.0732,-0.0641,-0.0608,-0.0549,-0.0534,-0.0411,-0.0365,-0.0286,-0.036,-0.0148,-0.0128,-0.0318,-0.0315,-0.0312,-0.0309,0,0,-0.1073,-0.1194,-0.1199,-0.1255,-0.1237,-0.1223,-0.1244,-0.1204,-0.1186,-0.1095,-0.1048,-0.0994,-0.09,-0.0847,-0.0744,-0.0673,-0.0574,-0.0552,-0.0541,-0.0374,-0.025,-0.0202,-0.0172,-0.051,-0.0509,-0.0509,-0.0073,0,-0.1166,-0.1342,-0.1339,-0.144,-0.1518,-0.1431,-0.1437,-0.1382,-0.1302,-0.1213,-0.1103,-0.1005,-0.0995,-0.0917,-0.0873,-0.0611,-0.0538,-0.0692,-0.0198,-0.0183,-0.014,-0.0156,-0.0128,0.0255,-0.0052,-0.0048,-0.0046,0,-0.1247,-0.1376,-0.1549,-0.1616,-0.1621,-0.1639,-0.1606,-0.1587,-0.1458,-0.1375,-0.1298,-0.1148,-0.1033,-0.0992,-0.0689,-0.0772,-0.0578,-0.0394,-0.0371,-0.0261,-0.0102,0.0268,0.0306,0.0428,-0.0012,-0.0015,-0.0017,0,-0.1344,-0.1476,-0.1639,-0.1673,-0.174,-0.1759,-0.1733,-0.165,-0.1566,-0.1454,-0.1303,-0.1206,-0.0995,-0.0843,-0.0519,-0.0575,-0.0115,-0.0114,0.0106,0.0119,0.0265,0.0286,0.0457,0.0047,0.0046,0.0045,0.0044,0,-0.1466,-0.1568,-0.1699,-0.181,-0.1875,-0.1864,-0.1845,-0.1807,-0.1641,-0.1448,-0.1381,-0.1151,-0.0944,-0.0643,-0.0475,-0.0091,-0.0073,0.0077,0.0207,0.0204,0.0213,0.0424,0.0455,0.0061,0.0058,0.0055,0.0052,0,-0.1572,-0.167,-0.1843,-0.1962,-0.1958,-0.2003,-0.1869,-0.1791,-0.1662,-0.1387,-0.1308,-0.1007,-0.0633,-0.0407,-0.0015,0.0078,0.0481,0.0485,0.0493,0.0607,0.0821,0.0839,0.1164,0.1294,0.0783,0.0786,0.0789,0,-0.1648,-0.1797,-0.196,-0.1988,-0.2044,-0.2047,-0.1967,-0.1834,-0.1659,-0.1239,-0.1033,-0.0652,-0.0303,0.0229,0.0399,0.07,0.0751,0.0901,0.071,0.0822,0.0944,0.0941,0.1026,0.0902,0.0905,0.0908,0.091,0,-0.1806,-0.1879,-0.2015,-0.2097,-0.2067,-0.1972,-0.1825,-0.166,-0.1353,-0.1046,-0.0527,-0.0237,0.0201,0.0528,0.0794,0.0942,0.0975,0.0966,0.1089,0.102,0.1029,0.1223,0.0683,0.0936,0.0933,0.0931,0.093,0.0929,-0.1845,-0.1946,-0.2088,-0.2117,-0.2074,-0.1837,-0.1642,-0.1345,-0.0955,-0.0339,-0.0126,0.0415,0.0636,0.0988,0.113,0.1306,0.1251,0.1351,0.138,0.1379,0.1407,0.0916,0.1273,0.1272,0.1272,0.1271,0.1271,0,-0.1831,-0.1945,-0.204,-0.2007,-0.1898,-0.1862,-0.1466,-0.1149,-0.0586,-0.0036,0.048,0.1014,0.1258,0.1389,0.1532,0.1684,0.1712,0.1772,0.1767,0.1846,0.1453,0.1349,0.1726,0.1726,0.1726,0.1726,0.1726,0.1726,-0.1813,-0.1909,-0.1968,-0.1813,-0.1756,-0.1412,-0.1139,-0.0663,-0.0204,0.0634,0.1132,0.1491,0.1605,0.1784,0.1971,0.2019,0.2192,0.217,0.2295,0.1971,0.1932,0.1895,0.1803,0.2269,0.2269,0.268,0.2684,0.2686]}],[{"header":{"parameterUnit":"m.s-1","parameterCategory":2,"la1":30.2991,"la2":30.254,"lo1":-89.0895,"lo2":-89.0444,"dy":0.0017,"dx":0.0017,"nx":28,"ny":28,"refTime":"2025-05-29T21:00:00:Z","depth":"2","parameterNumber":2,"parameterNumberName":"U-component_of_CURRENTS"},"data":[0,0,0,0,0,0,0,0,0,0,0,0,0,0,0,0,0,0,0,0,0,0,0,0,0,0,0,0,0,0,0,0,0,0,0,0,0,0,0,0,0,0,0,0,0,0,0,0,0,0,0,0,0,0,0,0,0,0,-0.2668,-0.2669,0,-0.2727,-0.2727,-0.2727,-0.2766,-0.2768,-0.2769,-0.277,-0.2969,-0.2973,-0.2977,0,0,0,0,0,0,0,0,0,0,0,0,0,-0.2577,-0.2578,-0.2667,-0.2669,-0.2671,-0.2727,-0.2727,-0.2727,-0.2766,-0.2768,-0.2769,-0.2771,-0.2967,-0.2972,-0.2977,0,0,0,0,0,0,0,0,0,0,0,0,0,-0.2614,-0.2578,-0.2667,-0.2706,-0.2711,-0.2728,-0.2727,-0.2727,-0.2766,-0.2768,-0.277,-0.2772,-0.2966,-0.2972,-0.2978,-0.2975,0,0,-0.2996,-0.2999,0,0,0,0,0,0,0,0,-0.2612,-0.2615,-0.2698,-0.2703,-0.2709,-0.2752,-0.2769,-0.2821,-0.2765,-0.2732,-0.277,-0.2772,-0.2915,-0.2925,-0.2914,-0.2985,-0.2993,-0.2997,-0.3,-0.3003,-0.3005,0,0,0,0,0,0,0,-0.2609,-0.2613,-0.2679,-0.27,-0.2707,-0.2718,-0.2724,-0.2777,-0.2805,-0.2736,-0.2741,-0.2766,-0.2918,-0.2907,-0.2919,-0.2996,-0.2997,-0.3002,-0.3006,-0.3008,-0.2976,-0.2972,0,0,0,0,0,0,-0.2623,-0.2611,-0.2678,-0.2682,-0.2677,-0.2719,-0.2725,-0.2726,-0.2802,-0.2818,-0.2764,-0.2768,-0.2896,-0.2912,-0.2927,-0.2903,-0.3003,-0.3009,-0.3012,-0.298,-0.2975,-0.297,0,0,0,0,0,0,-0.2621,-0.2627,-0.2675,-0.2659,-0.2667,-0.272,-0.272,-0.2727,-0.2761,-0.2825,-0.2841,-0.2799,-0.2898,-0.2918,-0.2925,-0.2913,-0.3011,-0.3017,-0.2986,-0.2979,-0.2972,-0.2873,0,0,0,0,0,0,-0.2617,-0.2625,-0.2623,-0.2659,-0.2669,-0.2683,-0.272,-0.2727,-0.2776,-0.2782,-0.2859,-0.2876,-0.2901,-0.2915,-0.2931,-0.2923,-0.3022,-0.2991,-0.2983,-0.2975,-0.2882,-0.2864,-0.2848,0,0,0,0,0,-0.2613,-0.26,-0.2622,-0.2631,-0.2666,-0.2683,-0.2687,-0.2724,-0.2777,-0.2767,-0.2783,-0.2876,-0.2873,-0.2916,-0.2936,-0.293,-0.2995,-0.2985,-0.2975,-0.289,-0.2867,-0.2849,0,0,0,0,0,0,-0.2571,-0.2605,-0.263,-0.2632,-0.266,-0.2695,-0.2696,-0.2746,-0.2752,-0.2762,-0.2832,-0.2846,-0.2844,-0.2881,-0.2928,-0.288,-0.2946,-0.2939,-0.2874,-0.2854,-0.2837,-0.2871,-0.3027,0,0,0,0,0,-0.256,-0.2551,-0.2599,-0.2601,-0.2614,-0.2666,-0.2685,-0.2712,-0.2735,-0.2743,-0.2782,-0.2803,-0.2807,-0.283,-0.2832,-0.2831,-0.2859,-0.2827,-0.281,-0.2796,-0.2826,-0.2829,-0.2818,-0.2937,-0.2937,-0.2937,0,0,-0.2554,-0.2568,-0.257,-0.2591,-0.2613,-0.2608,-0.2678,-0.27,-0.2697,-0.2766,-0.275,-0.2761,-0.2788,-0.2749,-0.2755,-0.2793,-0.2755,-0.2783,-0.2772,-0.2811,-0.2818,-0.2807,-0.2798,-0.293,-0.2931,-0.2932,0,0,-0.2518,-0.254,-0.2516,-0.2527,-0.2561,-0.2581,-0.2603,-0.2634,-0.2646,-0.2635,-0.2658,-0.2646,-0.2677,-0.2658,-0.2668,-0.2565,-0.2663,-0.2575,-0.2538,-0.2538,-0.2531,-0.2525,-0.2472,-0.2463,-0.2571,-0.2571,-0.2571,0,-0.2505,-0.249,-0.2516,-0.2493,-0.2513,-0.2576,-0.257,-0.257,-0.2593,-0.2614,-0.2615,-0.262,-0.2627,-0.2613,-0.2538,-0.2539,-0.2547,-0.2626,-0.2524,-0.2519,-0.2515,-0.2463,-0.2454,-0.2565,-0.2565,-0.2566,-0.2567,0,-0.245,-0.2442,-0.2431,-0.2417,-0.2432,-0.2435,-0.246,-0.2467,-0.2505,-0.2524,-0.2526,-0.2493,-0.2519,-0.2483,-0.2483,-0.2451,-0.2462,-0.2505,-0.2596,-0.2499,-0.2447,-0.2439,-0.2556,-0.2558,-0.256,-0.2562,0,0,-0.2396,-0.2394,-0.2387,-0.2396,-0.2402,-0.2418,-0.2405,-0.2436,-0.2468,-0.2449,-0.2475,-0.2415,-0.2448,-0.2453,-0.2447,-0.2417,-0.233,-0.2444,-0.2447,-0.2425,-0.2303,-0.2158,-0.2136,-0.238,-0.238,-0.238,-0.2253,0,-0.2348,-0.2313,-0.232,-0.2307,-0.2308,-0.2356,-0.2347,-0.2381,-0.2412,-0.2424,-0.2425,-0.2424,-0.2425,-0.2425,-0.24,-0.2382,-0.2319,-0.2358,-0.2373,-0.2372,-0.2286,-0.2126,-0.1994,-0.1859,-0.2247,-0.2245,-0.2245,0,-0.2278,-0.2277,-0.2258,-0.2295,-0.2301,-0.2297,-0.2359,-0.2358,-0.2392,-0.2418,-0.2446,-0.2458,-0.2424,-0.2413,-0.237,-0.2411,-0.234,-0.2299,-0.2295,-0.221,-0.2215,-0.2029,-0.1833,-0.2233,-0.2234,-0.2235,-0.2236,0,-0.2241,-0.2234,-0.2234,-0.2237,-0.2269,-0.2292,-0.232,-0.2367,-0.2364,-0.2419,-0.2419,-0.245,-0.2423,-0.2407,-0.232,-0.2362,-0.2237,-0.2294,-0.208,-0.2069,-0.1983,-0.1964,-0.221,-0.221,-0.221,-0.2211,-0.2211,0,-0.2184,-0.2183,-0.2225,-0.2221,-0.224,-0.2281,-0.2305,-0.2347,-0.2359,-0.2344,-0.2415,-0.2381,-0.2421,-0.2358,-0.2312,-0.2158,-0.2239,-0.2041,-0.2022,-0.1928,-0.1906,-0.2287,-0.2298,-0.2206,-0.2207,-0.2208,-0.2209,0,-0.2128,-0.215,-0.2151,-0.2197,-0.2215,-0.2231,-0.2261,-0.2259,-0.2311,-0.2284,-0.2285,-0.2305,-0.2244,-0.2218,-0.2144,-0.2099,-0.1995,-0.1897,-0.1746,-0.171,-0.183,-0.1837,-0.1688,-0.1682,-0.1677,-0.1672,-0.1668,0,-0.2098,-0.2089,-0.2119,-0.2118,-0.2136,-0.2171,-0.2167,-0.2219,-0.219,-0.2217,-0.2156,-0.2114,-0.2035,-0.1881,-0.1781,-0.1647,-0.1763,-0.1456,-0.1498,-0.1777,-0.1775,-0.179,-0.1803,-0.1317,-0.1311,-0.1306,-0.1302,0,-0.203,-0.2033,-0.2027,-0.2028,-0.2029,-0.2015,-0.2013,-0.198,-0.2019,-0.2003,-0.1943,-0.1893,-0.1738,-0.1547,-0.1369,-0.1294,-0.1495,-0.1342,-0.1677,-0.1467,-0.1416,-0.1419,-0.1446,-0.1256,-0.1261,-0.1264,-0.1267,-0.1268,-0.1963,-0.1937,-0.1918,-0.1908,-0.1896,-0.1824,-0.1761,-0.1754,-0.1688,-0.1615,-0.1683,-0.1563,-0.1515,-0.1154,-0.104,-0.0955,-0.1069,-0.1071,-0.1093,-0.1118,-0.1094,-0.1037,-0.0798,-0.08,-0.0802,-0.0803,-0.0804,0,-0.1857,-0.1824,-0.1803,-0.1743,-0.1648,-0.1694,-0.1606,-0.1509,-0.1396,-0.1374,-0.1318,-0.113,-0.0947,-0.0891,-0.0663,-0.0606,-0.0663,-0.0606,-0.0711,-0.0753,-0.0792,-0.0759,-0.037,-0.0369,-0.0368,-0.0368,0,0,-0.1795,-0.1715,-0.169,-0.1498,-0.1448,-0.1261,-0.1177,-0.1089,-0.102,-0.0915,-0.0848,-0.0894,-0.086,-0.0637,-0.0559,-0.0428,-0.06,-0.0396,-0.0738,-0.0904,-0.0942,-0.104,-0.1032,0,0,0,0,0]},{"header":{"parameterUnit":"m.s-1","parameterCategory":2,"la1":30.2991,"la2":30.254,"lo1":-89.0895,"lo2":-89.0444,"dy":0.0017,"dx":0.0017,"nx":28,"ny":28,"refTime":"2025-05-29T21:00:00:Z","depth":"2","parameterNumber":3,"parameterNumberName":"V-component_of_CURRENTS"},"data":[0,0,0,0,0,0,0,0,0,0,0,0,0,0,0,0,0,0,0,0,0,0,0,0,0,0,0,0,0,0,0,0,0,0,0,0,0,0,0,0,0,0,0,0,0,0,0,0,0,0,0,0,0,0,0,0,0,0,-0.0702,-0.0701,0,-0.0617,-0.0616,-0.0615,-0.0559,-0.0559,-0.0559,-0.0558,-0.0066,-0.0053,-0.004,0,0,0,0,0,0,0,0,0,0,0,0,0,-0.0696,-0.0697,-0.0702,-0.0701,-0.07,-0.0617,-0.0616,-0.0614,-0.0559,-0.0559,-0.0559,-0.0558,-0.007,-0.0055,-0.0039,0,0,0,0,0,0,0,0,0,0,0,0,0,-0.0661,-0.0697,-0.0702,-0.0664,-0.066,-0.0617,-0.0616,-0.0614,-0.0559,-0.0559,-0.0558,-0.0558,-0.0075,-0.0056,-0.0037,0.008,0,0,0.0023,0.0031,0,0,0,0,0,0,0,0,-0.0664,-0.0661,-0.0671,-0.0667,-0.0662,-0.0601,-0.0433,-0.0362,-0.0559,-0.0594,-0.0558,-0.0558,-0.0208,-0.0178,-0.0165,0.0103,0.0124,0.0024,0.0036,0.0045,0.005,0,0,0,0,0,0,0,-0.0666,-0.0664,-0.0665,-0.067,-0.0665,-0.0611,-0.0607,-0.0421,-0.0394,-0.0591,-0.0588,-0.0583,-0.0203,-0.0184,-0.0151,0.0132,0.0024,0.0041,0.0053,0.0061,0.0441,0.044,0,0,0,0,0,0,-0.0689,-0.0667,-0.0668,-0.0663,-0.0666,-0.0612,-0.0607,-0.0618,-0.0404,-0.0376,-0.0583,-0.0581,-0.0217,-0.0174,-0.0133,-0.0013,0.0045,0.0063,0.0074,0.0443,0.0441,0.0439,0,0,0,0,0,0,-0.0689,-0.0691,-0.0671,-0.0664,-0.0658,-0.0614,-0.0626,-0.0617,-0.06,-0.0403,-0.0366,-0.0576,-0.0216,-0.0161,-0.0031,0.0008,0.0072,0.0089,0.0445,0.0442,0.044,0.025,0,0,0,0,0,0,-0.069,-0.0692,-0.0704,-0.0666,-0.066,-0.0649,-0.0626,-0.0615,-0.0598,-0.0594,-0.0383,-0.0339,-0.0211,-0.0062,-0.0012,0.0036,0.0105,0.0447,0.0444,0.0441,0.0258,0.0241,0.0227,0,0,0,0,0,-0.069,-0.0712,-0.0705,-0.0705,-0.068,-0.0649,-0.064,-0.0605,-0.0598,-0.0589,-0.0496,-0.0346,-0.0044,-0.0048,0.0012,0.0066,0.0448,0.0445,0.0441,0.0265,0.0245,0.0227,0,0,0,0,0,0,-0.0716,-0.0707,-0.0699,-0.0718,-0.0687,-0.0641,-0.0638,-0.0612,-0.0538,-0.0532,-0.0358,-0.0308,-0.0181,-0.0047,-0.0056,0.0156,0.0228,0.0236,0.0074,0.0057,0.0041,0.0042,0.0121,0,0,0,0,0,-0.073,-0.0745,-0.0717,-0.073,-0.0724,-0.0683,-0.0667,-0.0643,-0.0578,-0.0549,-0.0408,-0.0269,-0.0148,-0.0046,0.0088,0.0227,0.0321,0.0294,0.0278,0.0264,0.0298,0.0383,0.0378,0.0427,0.0427,0.0427,0,0,-0.0744,-0.0741,-0.075,-0.0736,-0.0716,-0.0695,-0.0672,-0.0659,-0.0626,-0.0492,-0.0398,-0.0306,-0.0134,-0.002,0.0056,0.0106,0.0291,0.026,0.0247,0.029,0.0379,0.0374,0.037,0.0425,0.0425,0.0426,0,0,-0.0771,-0.0781,-0.0796,-0.0772,-0.0749,-0.0718,-0.0718,-0.0668,-0.0635,-0.055,-0.0473,-0.0388,-0.0158,-0.0063,0.0023,0.0014,0.0187,0.007,0.0034,0.0112,0.0109,0.0108,0.0184,0.0191,0.0083,0.0082,0.0082,0,-0.0786,-0.0803,-0.079,-0.0785,-0.077,-0.0731,-0.0725,-0.0679,-0.0589,-0.0553,-0.0534,-0.0311,-0.0176,-0.005,-0.0079,-0.001,0.0053,0.0089,0.0091,0.0093,0.0095,0.0174,0.0184,0.0072,0.0074,0.0075,0.0075,0,-0.0811,-0.0817,-0.0825,-0.0806,-0.0783,-0.0778,-0.072,-0.0683,-0.0643,-0.0587,-0.0482,-0.0363,-0.0227,-0.0186,-0.0121,-0.0037,0.0005,0.0039,0.0136,0.0079,0.0165,0.0179,0.0059,0.0062,0.0065,0.0067,0,0,-0.0859,-0.0848,-0.085,-0.0849,-0.08,-0.079,-0.0737,-0.068,-0.0652,-0.056,-0.0503,-0.0361,-0.0322,-0.0228,-0.0148,-0.0076,-0.0038,-0.0018,-0.001,0.0052,0.0132,0.0098,0.0112,-0.0015,-0.0012,-0.0011,0.0172,0,-0.0881,-0.0898,-0.087,-0.0864,-0.0868,-0.0812,-0.0763,-0.0701,-0.0641,-0.0569,-0.0463,-0.0372,-0.0326,-0.0284,-0.0213,-0.0062,-0.0002,-0.009,0.0187,0.0196,0.0169,0.0127,0.0119,0.0276,0.0187,0.019,0.0191,0,-0.0909,-0.0919,-0.0934,-0.0909,-0.0905,-0.0886,-0.0833,-0.078,-0.0669,-0.0618,-0.0529,-0.0437,-0.0303,-0.0285,-0.0053,-0.0114,-0.0008,0.0092,0.0102,0.0163,0.019,0.033,0.0308,0.0218,0.0216,0.0214,0.0212,0,-0.0966,-0.096,-0.0984,-0.0974,-0.0931,-0.0926,-0.0897,-0.0807,-0.0757,-0.0653,-0.0605,-0.0448,-0.0347,-0.0199,-0.0005,-0.0021,0.0237,0.0248,0.0318,0.0318,0.042,0.0424,0.0387,0.0387,0.0386,0.0386,0.0385,0,-0.1006,-0.1021,-0.1024,-0.1035,-0.1054,-0.0995,-0.0981,-0.0931,-0.0829,-0.0757,-0.0645,-0.0556,-0.0323,-0.0151,-0.0002,0.0208,0.0246,0.0324,0.0364,0.0346,0.0341,0.039,0.0388,0.0392,0.0391,0.039,0.0388,0,-0.106,-0.1062,-0.1088,-0.108,-0.1084,-0.1101,-0.105,-0.1017,-0.0927,-0.083,-0.0791,-0.0591,-0.0371,-0.0155,0.0124,0.0225,0.0418,0.047,0.0425,0.0455,0.0448,0.0434,0.0587,0.0588,0.0588,0.0588,0.0589,0,-0.1092,-0.1115,-0.1141,-0.1173,-0.118,-0.1189,-0.1173,-0.1084,-0.1026,-0.0848,-0.079,-0.0573,-0.0409,-0.0039,0.0193,0.045,0.045,0.0563,0.052,0.0445,0.047,0.0455,0.0441,0.0586,0.0586,0.0586,0.0586,0,-0.1142,-0.1155,-0.118,-0.1248,-0.1271,-0.1257,-0.1226,-0.119,-0.1045,-0.0957,-0.0781,-0.0645,-0.0303,-0.0016,0.0279,0.0423,0.0518,0.0569,0.0555,0.0499,0.0449,0.047,0.0457,0.0588,0.0588,0.0588,0.0587,0.0587,-0.1179,-0.1218,-0.1258,-0.1317,-0.1332,-0.1298,-0.1261,-0.1192,-0.1092,-0.0901,-0.0796,-0.0562,-0.0304,0.0127,0.0338,0.0546,0.0538,0.0603,0.0602,0.0601,0.0531,0.048,0.0613,0.0613,0.0613,0.0613,0.0613,0,-0.1215,-0.1259,-0.132,-0.1357,-0.1348,-0.1341,-0.1258,-0.1165,-0.1041,-0.0888,-0.0726,-0.0426,-0.0149,0.0128,0.0451,0.0607,0.0617,0.0638,0.063,0.0627,0.0626,0.0555,0.0646,0.0647,0.0647,0.0647,0,0,-0.1243,-0.1312,-0.1339,-0.135,-0.135,-0.1255,-0.1188,-0.1068,-0.0926,-0.0743,-0.0578,-0.0426,-0.011,0.0111,0.0327,0.0508,0.0524,0.0525,0.0484,0.0447,0.0443,0.0594,0.0481,0,0,0,0,0]}],[{"header":{"parameterUnit":"m.s-1","parameterCategory":2,"la1":30.2991,"la2":30.254,"lo1":-89.0895,"lo2":-89.0444,"dy":0.0017,"dx":0.0017,"nx":28,"ny":28,"refTime":"2025-05-29T21:00:00:Z","depth":"4","parameterNumber":2,"parameterNumberName":"U-component_of_CURRENTS"},"data":[0,0,0,0,0,0,0,0,0,0,0,0,0,0,0,0,0,0,0,0,0,0,0,0,0,0,0,0,0,0,0,0,0,0,0,0,0,0,0,0,0,0,0,0,0,0,0,0,0,0,0,0,0,0,0,0,0,0,-0.1662,-0.1662,0,-0.157,-0.1568,-0.1567,-0.1581,-0.1583,-0.1585,-0.1587,-0.1546,-0.1543,-0.154,0,0,0,0,0,0,0,0,0,0,0,0,0,-0.1717,-0.1716,-0.1662,-0.1662,-0.1661,-0.157,-0.1568,-0.1566,-0.158,-0.1583,-0.1586,-0.1588,-0.1547,-0.1543,-0.154,0,0,0,0,0,0,0,0,0,0,0,0,0,-0.1659,-0.1716,-0.1662,-0.1663,-0.1662,-0.157,-0.1568,-0.1566,-0.158,-0.1583,-0.1586,-0.1589,-0.1548,-0.1544,-0.1539,-0.1443,0,0,-0.1525,-0.1522,0,0,0,0,0,0,0,0,-0.1662,-0.1656,-0.1663,-0.1662,-0.1662,-0.1597,-0.1573,-0.153,-0.1579,-0.1603,-0.1587,-0.1591,-0.157,-0.1564,-0.1528,-0.1441,-0.1439,-0.1524,-0.1521,-0.1519,-0.1518,0,0,0,0,0,0,0,-0.1667,-0.166,-0.1618,-0.1662,-0.1662,-0.1622,-0.1618,-0.1563,-0.1564,-0.1601,-0.1604,-0.1604,-0.157,-0.1532,-0.1527,-0.1438,-0.1524,-0.152,-0.1517,-0.1515,-0.1407,-0.1407,0,0,0,0,0,0,-0.1696,-0.1664,-0.1621,-0.1616,-0.1679,-0.1619,-0.1614,-0.1608,-0.1564,-0.1562,-0.1601,-0.1605,-0.1539,-0.1533,-0.1526,-0.1563,-0.1519,-0.1515,-0.1512,-0.1407,-0.1407,-0.1407,0,0,0,0,0,0,-0.1697,-0.1692,-0.1625,-0.1644,-0.1634,-0.1617,-0.1608,-0.1605,-0.1612,-0.1565,-0.1563,-0.1619,-0.1541,-0.1533,-0.152,-0.1557,-0.1513,-0.1508,-0.1407,-0.1407,-0.1407,-0.154,0,0,0,0,0,0,-0.1698,-0.1693,-0.1705,-0.1646,-0.1634,-0.1603,-0.1606,-0.1601,-0.1608,-0.1613,-0.1578,-0.1575,-0.1543,-0.1527,-0.1515,-0.155,-0.1505,-0.1407,-0.1407,-0.1407,-0.1536,-0.1545,-0.1552,0,0,0,0,0,-0.17,-0.17,-0.1706,-0.1702,-0.1649,-0.1604,-0.1594,-0.1587,-0.1606,-0.1606,-0.1593,-0.1578,-0.1519,-0.1523,-0.1509,-0.1543,-0.1407,-0.1407,-0.1407,-0.1532,-0.1543,-0.1552,0,0,0,0,0,0,-0.1731,-0.17,-0.1706,-0.1698,-0.1674,-0.1611,-0.1609,-0.1604,-0.1585,-0.1604,-0.1568,-0.1563,-0.1564,-0.1521,-0.1527,-0.1507,-0.1463,-0.146,-0.1563,-0.1572,-0.158,-0.1597,-0.1501,0,0,0,0,0,-0.1743,-0.1738,-0.1703,-0.1701,-0.1692,-0.1656,-0.1643,-0.1638,-0.1611,-0.1608,-0.1588,-0.1563,-0.1537,-0.1536,-0.1493,-0.1476,-0.1441,-0.1488,-0.1496,-0.1504,-0.1505,-0.1497,-0.1506,-0.1407,-0.1407,-0.1407,0,0,-0.1759,-0.174,-0.1741,-0.1709,-0.1686,-0.1672,-0.1656,-0.1644,-0.1653,-0.1603,-0.1615,-0.1585,-0.1535,-0.1528,-0.1525,-0.151,-0.151,-0.1504,-0.1511,-0.1507,-0.1498,-0.1508,-0.1517,-0.1407,-0.1407,-0.1407,0,0,-0.1761,-0.1767,-0.1757,-0.174,-0.172,-0.17,-0.1712,-0.1673,-0.1684,-0.1674,-0.1653,-0.1659,-0.16,-0.1592,-0.1575,-0.1596,-0.1548,-0.1576,-0.1644,-0.1638,-0.1647,-0.1655,-0.1621,-0.1624,-0.159,-0.1591,-0.1591,0,-0.1782,-0.1763,-0.1748,-0.1731,-0.1731,-0.1726,-0.172,-0.1716,-0.1688,-0.1697,-0.1703,-0.166,-0.1637,-0.1641,-0.1657,-0.1623,-0.1589,-0.1622,-0.1654,-0.166,-0.1666,-0.1629,-0.1631,-0.1597,-0.1596,-0.1596,-0.1595,0,-0.176,-0.1764,-0.1757,-0.1746,-0.1746,-0.1738,-0.1741,-0.1756,-0.1777,-0.1771,-0.1789,-0.1761,-0.1739,-0.1742,-0.1708,-0.1734,-0.1686,-0.1665,-0.1642,-0.1685,-0.1642,-0.1642,-0.1606,-0.1604,-0.1602,-0.16,0,0,-0.1743,-0.1743,-0.1745,-0.175,-0.1756,-0.1745,-0.1785,-0.1797,-0.1813,-0.1837,-0.1848,-0.186,-0.1854,-0.1833,-0.1808,-0.1819,-0.1842,-0.1765,-0.1762,-0.1754,-0.1802,-0.1652,-0.1637,-0.1827,-0.1828,-0.1828,-0.1756,0,-0.1729,-0.1718,-0.1726,-0.1739,-0.1734,-0.1763,-0.1789,-0.1815,-0.1833,-0.184,-0.1875,-0.186,-0.1887,-0.1868,-0.1901,-0.1828,-0.1847,-0.1861,-0.174,-0.1735,-0.1617,-0.1634,-0.1831,-0.1756,-0.1756,-0.1756,-0.1756,0,-0.1688,-0.1692,-0.1704,-0.1732,-0.1734,-0.1754,-0.1795,-0.1815,-0.1846,-0.1856,-0.1894,-0.1879,-0.1908,-0.1907,-0.1901,-0.1902,-0.187,-0.1839,-0.1835,-0.1646,-0.1585,-0.1699,-0.1755,-0.1755,-0.1755,-0.1755,-0.1755,0,-0.1657,-0.1672,-0.1692,-0.17,-0.1732,-0.176,-0.1788,-0.1825,-0.1827,-0.1857,-0.1841,-0.1888,-0.1872,-0.1882,-0.1847,-0.186,-0.1806,-0.181,-0.1659,-0.1647,-0.1749,-0.1742,-0.1815,-0.1815,-0.1815,-0.1815,-0.1816,0,-0.1612,-0.1627,-0.1684,-0.1687,-0.171,-0.1749,-0.1767,-0.1796,-0.181,-0.1792,-0.1846,-0.1818,-0.1863,-0.1835,-0.1829,-0.173,-0.1803,-0.1661,-0.162,-0.1802,-0.1802,-0.1749,-0.1742,-0.1813,-0.1813,-0.1814,-0.1814,0,-0.1555,-0.1596,-0.1614,-0.167,-0.1689,-0.1707,-0.174,-0.1728,-0.1768,-0.1737,-0.1737,-0.1749,-0.1702,-0.1721,-0.1689,-0.1663,-0.1605,-0.1558,-0.173,-0.17,-0.1454,-0.1455,-0.1371,-0.1365,-0.136,-0.1356,-0.1352,0,-0.152,-0.1525,-0.1592,-0.1602,-0.1628,-0.1661,-0.1659,-0.1702,-0.1679,-0.1679,-0.1637,-0.1599,-0.1599,-0.1439,-0.1492,-0.1447,-0.1447,-0.1415,-0.147,-0.1441,-0.141,-0.1419,-0.1426,-0.1344,-0.1343,-0.1342,-0.134,0,-0.1444,-0.1485,-0.1498,-0.1523,-0.1536,-0.1529,-0.1538,-0.1503,-0.1529,-0.1578,-0.1472,-0.142,-0.1349,-0.1327,-0.1285,-0.1276,-0.1435,-0.1364,-0.1375,-0.1426,-0.1408,-0.1384,-0.1397,-0.1323,-0.1326,-0.1327,-0.1328,0,-0.1389,-0.1381,-0.1408,-0.1408,-0.1424,-0.1373,-0.1399,-0.1348,-0.1328,-0.134,-0.1305,-0.1287,-0.1319,-0.1234,-0.1211,-0.1163,-0.1159,-0.1151,-0.1173,-0.1193,-0.117,-0.1123,-0.0905,0,0,0,0,0,-0.1321,-0.1286,-0.1284,-0.1259,-0.1268,-0.1267,-0.129,-0.1315,-0.1348,-0.1227,-0.1257,-0.1185,-0.1104,-0.1112,-0.1024,-0.1138,-0.1175,-0.1033,-0.1182,-0.1228,-0.1248,-0.1239,0,0,0,0,0,0,-0.1268,-0.1263,-0.1238,-0.1125,-0.1081,-0.1055,-0.1064,-0.1094,-0.1039,-0.1096,-0.1056,-0.1106,-0.105,-0.1117,-0.0992,-0.0994,-0.1062,-0.1042,-0.1038,-0.1216,-0.1234,-0.125,-0.1248,0,0,0,0,0]},{"header":{"parameterUnit":"m.s-1","parameterCategory":2,"la1":30.2991,"la2":30.254,"lo1":-89.0895,"lo2":-89.0444,"dy":0.0017,"dx":0.0017,"nx":28,"ny":28,"refTime":"2025-05-29T21:00:00:Z","depth":"4","parameterNumber":3,"parameterNumberName":"V-component_of_CURRENTS"},"data":[0,0,0,0,0,0,0,0,0,0,0,0,0,0,0,0,0,0,0,0,0,0,0,0,0,0,0,0,0,0,0,0,0,0,0,0,0,0,0,0,0,0,0,0,0,0,0,0,0,0,0,0,0,0,0,0,0,0,-0.0504,-0.0504,0,-0.0473,-0.0473,-0.0472,-0.0467,-0.0468,-0.0468,-0.0468,-0.0439,-0.0438,-0.0437,0,0,0,0,0,0,0,0,0,0,0,0,0,-0.049,-0.0491,-0.0504,-0.0504,-0.0503,-0.0473,-0.0473,-0.0472,-0.0467,-0.0468,-0.0468,-0.0468,-0.0439,-0.0438,-0.0437,0,0,0,0,0,0,0,0,0,0,0,0,0,-0.0481,-0.0491,-0.0504,-0.0497,-0.0497,-0.0473,-0.0473,-0.0472,-0.0467,-0.0468,-0.0468,-0.0469,-0.044,-0.0438,-0.0437,-0.0418,0,0,-0.0432,-0.0431,0,0,0,0,0,0,0,0,-0.0482,-0.0482,-0.0499,-0.0498,-0.0497,-0.0475,-0.0457,-0.0454,-0.0467,-0.0478,-0.0468,-0.0469,-0.0451,-0.0449,-0.0441,-0.0417,-0.0416,-0.0432,-0.0431,-0.043,-0.043,0,0,0,0,0,0,0,-0.0483,-0.0483,-0.0492,-0.0498,-0.0497,-0.0472,-0.0472,-0.0456,-0.0462,-0.0477,-0.0477,-0.0474,-0.0451,-0.0443,-0.0441,-0.0415,-0.0432,-0.0431,-0.043,-0.0429,-0.0356,-0.0355,0,0,0,0,0,0,-0.049,-0.0484,-0.0493,-0.0491,-0.0491,-0.0473,-0.0472,-0.0481,-0.0463,-0.046,-0.0473,-0.0474,-0.0445,-0.0443,-0.044,-0.0391,-0.043,-0.0429,-0.0428,-0.0357,-0.0356,-0.0355,0,0,0,0,0,0,-0.049,-0.0492,-0.0494,-0.0486,-0.0484,-0.0473,-0.0482,-0.048,-0.0484,-0.046,-0.0457,-0.048,-0.0446,-0.0442,-0.042,-0.0391,-0.0428,-0.0427,-0.0358,-0.0357,-0.0356,-0.031,0,0,0,0,0,0,-0.049,-0.0492,-0.0506,-0.0487,-0.0485,-0.0485,-0.0482,-0.048,-0.0481,-0.0481,-0.0464,-0.0462,-0.0446,-0.0422,-0.0418,-0.0389,-0.0425,-0.036,-0.0358,-0.0356,-0.0313,-0.0307,-0.0303,0,0,0,0,0,-0.049,-0.0507,-0.0507,-0.0508,-0.0503,-0.0485,-0.0482,-0.0474,-0.0481,-0.048,-0.0461,-0.0463,-0.0407,-0.042,-0.0416,-0.0386,-0.0361,-0.0358,-0.0356,-0.0315,-0.0308,-0.0303,0,0,0,0,0,0,-0.051,-0.0508,-0.0507,-0.0524,-0.0508,-0.0485,-0.049,-0.0482,-0.0467,-0.0473,-0.0452,-0.0446,-0.0414,-0.0411,-0.0426,-0.036,-0.0384,-0.0381,-0.0354,-0.0348,-0.0343,-0.0355,-0.0424,0,0,0,0,0,-0.0521,-0.0535,-0.0518,-0.0532,-0.0529,-0.0512,-0.0507,-0.0499,-0.0481,-0.0477,-0.0457,-0.0434,-0.0399,-0.0385,-0.0363,-0.0331,-0.033,-0.0309,-0.0304,-0.03,-0.0307,-0.0255,-0.0245,-0.0348,-0.0348,-0.0348,0,0,-0.0534,-0.0533,-0.0543,-0.0537,-0.053,-0.0513,-0.0511,-0.0508,-0.0485,-0.0475,-0.0445,-0.042,-0.0389,-0.0344,-0.033,-0.0339,-0.0275,-0.0297,-0.0293,-0.0303,-0.0251,-0.0241,-0.0232,-0.0346,-0.0347,-0.0347,0,0,-0.0552,-0.0567,-0.0577,-0.0562,-0.0549,-0.0531,-0.0532,-0.0509,-0.0494,-0.0461,-0.0436,-0.039,-0.036,-0.0308,-0.0282,-0.0238,-0.0251,-0.0241,-0.0219,-0.0167,-0.0159,-0.0151,-0.0156,-0.0149,-0.0235,-0.0235,-0.0235,0,-0.0567,-0.0575,-0.0574,-0.0566,-0.0556,-0.0539,-0.053,-0.0503,-0.0469,-0.045,-0.0453,-0.0368,-0.0332,-0.0256,-0.0231,-0.0223,-0.0227,-0.0242,-0.016,-0.0152,-0.0144,-0.0152,-0.0145,-0.0232,-0.0233,-0.0233,-0.0233,0,-0.0576,-0.0581,-0.0586,-0.0569,-0.0555,-0.055,-0.051,-0.049,-0.0472,-0.0438,-0.0379,-0.0321,-0.0274,-0.0239,-0.0218,-0.0142,-0.0175,-0.016,-0.0175,-0.0131,-0.0143,-0.0136,-0.0229,-0.023,-0.023,-0.0231,0,0,-0.0612,-0.0597,-0.06,-0.0595,-0.056,-0.0554,-0.051,-0.0466,-0.0449,-0.0392,-0.0361,-0.0255,-0.0238,-0.0208,-0.0167,-0.0107,-0.0044,-0.0115,-0.0113,-0.0122,0.0019,0.0013,0.0019,-0.0019,-0.0017,-0.0015,-0.0017,0,-0.0619,-0.0621,-0.0601,-0.059,-0.0585,-0.0549,-0.0512,-0.0468,-0.0432,-0.0397,-0.0315,-0.0275,-0.0222,-0.0206,-0.0129,-0.0083,-0.0022,-0.0048,-0.0023,-0.0023,-0.0032,0.003,-0.0009,-0.0012,-0.0011,-0.001,-0.0009,0,-0.0629,-0.063,-0.0632,-0.0609,-0.0605,-0.0592,-0.0556,-0.0518,-0.0448,-0.0422,-0.0356,-0.0316,-0.0224,-0.0189,-0.0067,-0.0097,-0.0032,0.0016,0.0017,-0.0,-0.0014,-0.006,0.0003,0.0002,0.0001,0.0,-0.0,0,-0.0662,-0.0649,-0.0661,-0.0652,-0.0618,-0.0615,-0.0597,-0.0536,-0.0512,-0.0452,-0.0443,-0.0337,-0.0307,-0.0199,-0.0093,-0.0088,0.0021,0.004,0.0099,0.0096,0.0078,0.007,0.0152,0.0152,0.0152,0.0152,0.0152,0,-0.0672,-0.0681,-0.0689,-0.0692,-0.071,-0.0666,-0.0668,-0.0631,-0.0581,-0.0555,-0.0472,-0.0436,-0.0305,-0.0226,-0.0119,-0.0006,0.0004,0.0107,0.0114,0.0092,0.0086,0.0081,0.0073,0.0152,0.0152,0.0152,0.0152,0,-0.0696,-0.07,-0.072,-0.0719,-0.0729,-0.0746,-0.0735,-0.0724,-0.0674,-0.0645,-0.0631,-0.0526,-0.042,-0.0292,-0.0138,-0.0055,0.0063,0.0113,0.0038,0.0038,0.0101,0.0095,0.016,0.016,0.016,0.016,0.0161,0,-0.0703,-0.0719,-0.0764,-0.0798,-0.0808,-0.0827,-0.0834,-0.0786,-0.0763,-0.0686,-0.0671,-0.0576,-0.0488,-0.03,-0.0157,0.002,0.0075,0.0102,0.016,0.0111,0.011,0.0104,0.0098,0.0161,0.0161,0.0161,0.0161,0,-0.0716,-0.0749,-0.0774,-0.0851,-0.0891,-0.0905,-0.0907,-0.0893,-0.0818,-0.0793,-0.0687,-0.057,-0.0454,-0.0294,-0.0162,-0.0019,0.006,0.0105,0.0107,0.0161,0.0112,0.0111,0.0104,0.0161,0.0161,0.0161,0.0161,0,-0.074,-0.0776,-0.0831,-0.089,-0.0944,-0.095,-0.0947,-0.0898,-0.0861,-0.0757,-0.0732,-0.0582,-0.0503,-0.0314,-0.0186,-0.006,-0.001,0.0032,0.0038,0.0039,0.0023,-0.0056,-0.0044,0,0,0,0,0,-0.075,-0.0796,-0.0859,-0.0915,-0.0963,-0.0979,-0.0972,-0.0946,-0.0887,-0.0815,-0.0758,-0.0631,-0.0424,-0.0339,-0.021,-0.0182,-0.0002,-0.0029,0.0045,0.0165,0.0164,0.0169,0,0,0,0,0,0,-0.0766,-0.0832,-0.086,-0.0914,-0.0945,-0.0975,-0.0964,-0.0925,-0.0861,-0.0798,-0.0686,-0.0615,-0.0415,-0.0499,-0.0213,-0.0176,-0.0113,0.0069,0.0072,0.0165,0.0164,0.0164,0.0168,0,0,0,0,0]}]]